Location: Bonac
(42.8765°N, 0.9753°E)
Time: 10:38:46
(UTC+00:00)

YAOGAN 1 - Pass Details

Date: 12 January 2026
Orbit: 605 x 607 km, 97.8° (Epoch: 10 February)

Event Time Altitude Azimuth Distance (km) Brightness Sun altitude
Rises 18:59:33 0° 188° (S) 2,850 6.2 -24.3°
Reaches altitude 10° 19:01:53 10° 198° (SSW) 1,951 5.4 -24.7°
Maximum altitude 19:05:44 33° 263° (W) 1,022 4.2 -25.4°
Drops below altitude 10° 19:09:37 10° 328° (NNW) 1,965 5.4 -26.2°
Sets 19:11:59 0° 338° (NNW) 2,873 6.2 -26.6°
